DW0226 Weather Reports


time (UTC)temp
F
wind
direction
speed
knots
gust
knots
rain 1hr
in
rain 24hr
in
rain mn
in
humidity
%
barometer
mb
20190325113031 44 80 0.0 1.7 0.00 0.00 0.00 56 1015.1
20190325112026 44 201 0.0 0.0 0.00 0.00 0.00 58 1015.0
20190325111020 44 201 0.0 0.0 0.00 0.00 0.00 59 1015.1
20190325110032 44 201 0.0 0.0 0.00 0.00 0.00 61 1015.1
20190325105027 45 201 0.0 0.0 0.00 0.00 0.00 63 1015.0
20190325104022 45 201 0.0 0.0 0.00 0.00 0.00 64 1015.1
20190325103035 46 201 0.0 0.0 0.00 0.00 0.00 63 1015.1
20190325102026 46 201 0.0 0.0 0.00 0.00 0.00 65 1015.2
20190325101022 47 201 0.0 0.0 0.00 0.00 0.00 64 1014.8
20190325100038 47 201 0.0 0.0 0.00 0.00 0.00 63 1015.1
20190325095029 48 201 0.0 0.0 0.00 0.00 0.00 62 1015.1
20190325094024 48 201 0.0 0.0 0.00 0.00 0.00 64 1015.1
20190325093019 48 201 0.0 0.0 0.00 0.00 0.00 64 1015.1
20190325092030 48 201 0.0 0.0 0.00 0.00 0.00 63 1015.1
20190325091025 48 201 0.0 0.0 0.00 0.00 0.00 64 1015.1
20190325090022 48 201 0.0 0.0 0.00 0.00 0.00 63 1015.2
20190325085035 48 201 0.0 0.0 0.00 0.00 0.00 61 1015.1
20190325084025 48 201 0.0 0.0 0.00 0.00 0.00 61 1015.1
20190325083038 48 201 0.0 0.0 0.00 0.00 0.00 60 1014.9
20190325082033 48 201 0.0 0.0 0.00 0.00 0.00 60 1015.1
20190325081028 48 201 0.0 0.0 0.00 0.00 0.00 61 1015.2
20190325080024 48 201 0.0 0.0 0.00 0.00 0.00 61 1015.1
20190325075034 48 201 0.0 0.0 0.00 0.00 0.00 62 1015.3
20190325074029 48 201 0.0 0.0 0.00 0.00 0.00 62 1015.3
20190325073024 48 201 0.0 0.0 0.00 0.00 0.00 62 1015.3
20190325072015 48 201 0.0 0.0 0.00 0.00 0.00 63 1015.4
20190325071034 48 201 0.0 0.0 0.00 0.00 0.00 64 1015.5
20190325070025 48 201 0.0 0.0 0.00 0.00 0.00 64 1015.5
20190325065016 48 201 0.0 0.0 0.00 0.00 0.00 66 1015.7
20190325064030 48 201 0.0 0.0 0.00 0.00 0.00 66 1015.6
20190325063028 49 201 0.0 0.0 0.00 0.00 0.00 64 1015.7
20190325062018 48 201 0.0 0.0 0.00 0.00 0.00 66 1015.7
20190325061029 48 201 0.0 0.0 0.00 0.00 0.00 65 1015.8
20190325060025 48 201 0.0 0.0 0.00 0.00 0.00 65 1015.9
20190325055035 48 201 0.0 2.6 0.00 0.00 0.00 65 1016.0
20190325054026 47 94 0.0 0.0 0.00 0.00 0.00 65 1016.1
20190325053020 48 94 0.0 0.0 0.00 0.00 0.00 65 1016.2
20190325052034 48 94 0.0 0.0 0.00 0.00 0.00 66 1016.2
20190325051029 48 94 0.0 0.0 0.00 0.00 0.00 67 1016.3
20190325050021 48 94 0.0 0.0 0.00 0.00 0.00 68 1016.4
20190325045035 49 94 0.0 0.0 0.00 0.00 0.00 69 1016.4
20190325044027 49 94 0.0 0.0 0.00 0.00 0.00 69 1016.5
20190325043019 49 94 0.0 0.0 0.00 0.00 0.00 69 1016.5
20190325042033 49 94 0.0 0.0 0.00 0.00 0.00 69 1016.6
20190325041029 50 94 0.0 0.0 0.00 0.00 0.00 69 1016.7
20190325040021 50 94 0.0 0.0 0.00 0.00 0.00 69 1016.8
20190325035031 50 94 0.0 0.0 0.00 0.00 0.00 69 1016.8
20190325034026 50 94 0.0 0.0 0.00 0.00 0.00 69 1016.8
20190325033019 50 94 0.0 0.0 0.00 0.00 0.00 70 1016.9
20190325032029 50 94 0.0 0.0 0.00 0.00 0.00 70 1016.9
20190325031020 50 94 0.0 0.0 0.00 0.00 0.00 70 1017.1
20190325030018 50 95 0.0 0.0 0.00 0.00 0.00 70 1017.2
20190325025030 51 95 0.9 3.5 0.00 0.00 0.00 70 1017.1
20190325024022 51 100 0.0 0.0 0.00 0.00 0.00 70 1017.3
20190325023019 51 100 0.0 0.0 0.00 0.00 0.00 70 1017.4
20190325022032 51 100 0.0 0.0 0.00 0.00 0.00 70 1017.4
20190325021023 51 100 0.0 0.0 0.00 0.00 0.00 69 1017.6
20190325020036 52 100 0.0 0.0 0.00 0.00 0.00 69 1017.5
20190325015031 52 100 0.0 0.0 0.00 0.00 0.00 68 1017.4
20190325014022 52 100 0.0 3.5 0.00 0.00 0.00 68 1017.5
20190325013037 52 94 0.0 0.0 0.00 0.00 0.00 68 1017.5
20190325012028 52 94 0.0 3.5 0.00 0.00 0.00 68 1017.5
20190325011023 52 94 0.0 0.0 0.00 0.00 0.00 67 1017.6
20190325010035 53 93 0.0 3.5 0.00 0.00 0.00 66 1017.7
20190325005025 53 112 0.0 4.3 0.00 0.00 0.00 66 1017.6
20190325004020 53 98 0.0 6.1 0.00 0.00 0.00 64 1017.7
20190325003032 54 86 0.0 5.2 0.00 0.00 0.00 63 1017.7
20190325002026 54 101 0.0 3.5 0.00 0.00 0.00 61 1017.7
20190325001037 54 102 0.9 2.6 0.00 0.00 0.00 59 1017.7
20190325000033 55 114 0.0 4.3 0.00 0.00 0.00 58 1017.7
20190324235027 55 97 1.7 5.2 0.00 0.00 0.00 58 1017.7
20190324234018 56 104 2.6 4.3 0.00 0.00 0.00 57 1017.4
20190324233017 56 88 0.9 5.2 0.00 0.00 0.00 55 1017.3
20190324232031 57 111 2.6 5.2 0.00 0.00 0.00 55 1017.4
20190324231024 57 95 0.0 0.0 0.00 0.00 0.00 54 1017.7
20190324230016 58 107 0.0 1.7 0.00 0.00 0.00 54 1017.7
20190324225034 58 115 0.0 0.0 0.00 0.00 0.00 54 1017.7
20190324224026 59 115 0.0 0.0 0.00 0.00 0.00 54 1017.6
20190324223021 59 115 0.0 0.0 0.00 0.00 0.00 52 1017.7
20190324222019 60 115 0.0 0.0 0.00 0.00 0.00 51 1017.7
20190324221034 60 115 0.0 0.0 0.00 0.00 0.00 49 1017.8
20190324220026 60 142 0.0 6.1 0.00 0.00 0.00 48 1017.8
20190324215018 61 111 0.0 4.3 0.00 0.00 0.00 46 1017.8
20190324214033 62 131 3.5 7.0 0.00 0.00 0.00 44 1017.8
20190324213029 63 130 2.6 4.3 0.00 0.00 0.00 42 1017.8
20190324212019 64 116 0.0 0.0 0.00 0.00 0.00 40 1017.7
20190324211035 64 115 0.0 0.0 0.00 0.00 0.00 39 1017.8
20190324210027 64 119 0.0 4.3 0.00 0.00 0.00 37 1017.9
20190324205037 65 112 0.0 5.2 0.00 0.00 0.00 37 1018.0
20190324204030 66 111 0.0 5.2 0.00 0.00 0.00 35 1017.7
20190324203028 66 173 0.0 4.3 0.00 0.00 0.00 33 1018.1
20190324202018 66 136 0.9 4.3 0.00 0.00 0.00 33 1018.4
20190324201033 66 194 0.9 5.2 0.00 0.00 0.00 31 1018.5
20190324200029 66 190 0.0 3.5 0.00 0.00 0.00 35 1018.6
20190324195020 65 240 1.7 6.1 0.00 0.00 0.00 36 1019.0
20190324194034 65 200 0.9 7.0 0.00 0.00 0.00 33 1019.1
20190324193028 65 255 0.9 5.2 0.00 0.00 0.00 35 1019.1
20190324192023 64 232 0.9 6.1 0.00 0.00 0.00 32 1019.3
20190324191018 64 213 0.0 4.3 0.00 0.00 0.00 33 1019.6
20190324190030 63 211 1.7 5.2 0.00 0.00 0.00 34 1019.8
20190324185024 63 286 0.9 7.0 0.00 0.00 0.00 35 1020.2
20190324184035 63 240 1.7 7.8 0.00 0.00 0.00 37 1020.5
20190324183027 63 242 4.3 7.8 0.00 0.00 0.00 36 1020.7
20190324182018 62 211 0.0 5.2 0.00 0.00 0.00 36 1021.0
20190324181034 62 205 0.0 6.1 0.00 0.00 0.00 34 1021.3
20190324180026 61 228 0.0 7.0 0.00 0.00 0.00 36 1021.5
20190324175037 61 195 0.0 4.3 0.00 0.00 0.00 36 1021.8
20190324174029 61 211 3.5 8.7 0.00 0.00 0.00 35 1022.0
20190324173025 60 266 1.7 6.1 0.00 0.00 0.00 35 1022.2
20190324172019 60 234 0.0 3.5 0.00 0.00 0.00 37 1022.3
20190324171033 59 234 3.5 7.8 0.00 0.00 0.00 36 1022.6
20190324170031 59 243 1.7 5.2 0.00 0.00 0.00 38 1022.9
20190324165025 59 139 0.0 7.8 0.00 0.00 0.00 36 1023.0
20190324164036 59 168 1.7 4.3 0.00 0.00 0.00 37 1023.2
20190324163029 58 242 0.9 4.3 0.00 0.00 0.00 40 1023.4
20190324162025 58 239 2.6 6.1 0.00 0.00 0.00 38 1023.7
20190324161036 57 232 1.7 6.1 0.00 0.00 0.00 37 1024.0
20190324160029 57 229 1.7 5.2 0.00 0.00 0.00 38 1024.2
20190324155025 57 186 0.9 5.2 0.00 0.00 0.00 38 1024.2
20190324154036 57 234 0.9 3.5 0.00 0.00 0.00 39 1024.4
20190324153028 57 161 1.7 3.5 0.00 0.00 0.00 37 1024.5
20190324152019 56 236 0.0 1.7 0.00 0.00 0.00 41 1024.6
20190324151034 55 213 0.9 3.5 0.00 0.00 0.00 41 1024.8
20190324150025 55 227 0.9 5.2 0.00 0.00 0.00 40 1024.8
20190324145019 54 223 0.0 4.3 0.00 0.00 0.00 45 1024.8
20190324144017 54 186 0.0 5.2 0.00 0.00 0.00 48 1024.9
20190324143035 52 168 0.0 5.2 0.00 0.00 0.00 46 1024.9
20190324142024 52 174 1.7 4.3 0.00 0.00 0.00 49 1025.2
20190324141016 51 236 0.0 3.5 0.00 0.00 0.00 55 1025.2
20190324140015 50 245 0.0 1.7 0.00 0.00 0.00 55 1025.3
20190324135030 49 245 0.0 3.5 0.00 0.00 0.00 63 1025.3
20190324134021 48 239 0.9 3.5 0.00 0.00 0.00 67 1025.6
20190324133021 46 255 0.0 1.7 0.00 0.00 0.00 71 1025.5
20190324132031 45 255 0.9 3.5 0.00 0.00 0.00 71 1025.5
20190324131022 43 256 0.0 0.0 0.00 0.00 0.00 68 1025.4
20190324130036 41 257 0.0 0.0 0.00 0.00 0.00 53 1025.3
20190324125031 40 313 0.0 0.0 0.00 0.00 0.00 44 1025.4
20190324124022 38 309 0.0 0.0 0.00 0.00 0.00 44 1025.4
20190324123035 36 309 0.0 0.0 0.00 0.00 0.00 46 1025.5
20190324122030 34 309 0.0 0.0 0.00 0.00 0.00 45 1025.6
20190324121022 33 309 0.0 0.0 0.00 0.00 0.00 46 1025.4
20190324120033 32 309 0.0 0.0 0.00 0.00 0.00 47 1025.6
20190324115024 31 309 0.0 0.0 0.00 0.00 0.00 48 1025.6
20190324114019 29 313 0.0 0.0 0.00 0.00 0.00 50 1025.5